| time (UTC) | temp F | wind direction | speed knots | gust knots | rain 1hr in | rain 24hr in | rain mn in | humidity % | barometer mb |
| 20260506133012 | 51 | 307 | 5.2 | 9.6 | 0.00 | 0.00 | 0.00 | 86 | 1013.0 |
| 20260506131939 | 51 | 5 | 5.2 | 10.4 | 0.00 | 0.00 | 0.00 | 86 | 1012.1 |
| 20260506130939 | 51 | 348 | 6.1 | 10.4 | 0.00 | 0.00 | 0.00 | 86 | 1012.0 |
| 20260506125937 | 51 | 0 | 6.1 | 10.4 | 0.00 | 0.00 | 0.00 | 85 | 1012.0 |
| 20260506123722 | 51 | 9 | 7.0 | 13.9 | 0.00 | 0.00 | 0.00 | 84 | 1011.2 |
| 20260506122747 | 51 | 339 | 7.0 | 13.9 | 0.00 | 0.00 | 0.00 | 84 | 1011.4 |
| 20260506120542 | 52 | 335 | 7.0 | 11.3 | 0.00 | 0.00 | 0.00 | 82 | 1011.2 |
| 20260506115534 | 52 | 342 | 5.2 | 12.2 | 0.00 | 0.00 | 0.00 | 81 | 1011.1 |
| 20260506114515 | 53 | 339 | 7.0 | 12.2 | 0.00 | 0.00 | 0.00 | 79 | 1011.1 |
| 20260506113454 | 53 | 331 | 7.0 | 11.3 | 0.00 | 0.00 | 0.00 | 79 | 1010.8 |
| 20260506112458 | 54 | 339 | 6.1 | 11.3 | 0.00 | 0.00 | 0.00 | 79 | 1010.6 |
| 20260506111517 | 54 | 348 | 5.2 | 10.4 | 0.00 | 0.00 | 0.00 | 78 | 1010.4 |
| 20260506110519 | 54 | 308 | 7.0 | 13.0 | 0.00 | 0.00 | 0.00 | 78 | 1010.1 |
| 20260506105513 | 55 | 330 | 6.1 | 13.0 | 0.00 | 0.00 | 0.00 | 78 | 1009.8 |
| 20260506104507 | 55 | 304 | 6.1 | 13.9 | 0.00 | 0.00 | 0.00 | 78 | 1009.8 |
| 20260506103520 | 55 | 19 | 7.0 | 13.9 | 0.00 | 0.00 | 0.00 | 77 | 1009.7 |
| 20260506102518 | 56 | 341 | 6.1 | 12.2 | 0.00 | 0.00 | 0.00 | 77 | 1009.4 |
| 20260506101543 | 56 | 355 | 7.0 | 12.2 | 0.00 | 0.00 | 0.00 | 77 | 1009.3 |
| 20260506100508 | 56 | 331 | 5.2 | 10.4 | 0.00 | 0.00 | 0.00 | 77 | 1009.2 |
| 20260506095505 | 56 | 344 | 4.3 | 9.6 | 0.00 | 0.00 | 0.00 | 77 | 1008.9 |
| 20260506094449 | 56 | 355 | 5.2 | 9.6 | 0.00 | 0.00 | 0.00 | 77 | 1008.6 |
| 20260506093419 | 56 | 343 | 5.2 | 9.6 | 0.00 | 0.00 | 0.00 | 77 | 1008.6 |
| 20260506092443 | 56 | 21 | 3.5 | 7.8 | 0.00 | 0.00 | 0.00 | 77 | 1008.7 |
| 20260506091440 | 56 | 321 | 5.2 | 9.6 | 0.00 | 0.00 | 0.00 | 77 | 1008.6 |
| 20260506090502 | 56 | 19 | 5.2 | 9.6 | 0.00 | 0.00 | 0.00 | 77 | 1008.4 |
| 20260506085520 | 57 | 338 | 4.3 | 7.0 | 0.00 | 0.00 | 0.00 | 77 | 1008.3 |
| 20260506084513 | 57 | 22 | 5.2 | 9.6 | 0.00 | 0.00 | 0.00 | 77 | 1008.3 |
| 20260506083458 | 57 | 5 | 4.3 | 9.6 | 0.00 | 0.00 | 0.00 | 78 | 1008.4 |
| 20260506082428 | 57 | 338 | 4.3 | 8.7 | 0.00 | 0.00 | 0.00 | 78 | 1007.9 |
| 20260506081453 | 57 | 351 | 5.2 | 8.7 | 0.00 | 0.00 | 0.00 | 79 | 1007.9 |
| 20260506080425 | 57 | 347 | 3.5 | 8.7 | 0.00 | 0.00 | 0.00 | 80 | 1008.0 |
| 20260506073416 | 57 | 327 | 3.5 | 9.6 | 0.00 | 0.00 | 0.00 | 80 | 1008.2 |
| 20260506072410 | 57 | 0 | 4.3 | 9.6 | 0.00 | 0.00 | 0.00 | 80 | 1008.1 |
| 20260506070219 | 57 | 12 | 4.3 | 7.8 | 0.00 | 0.00 | 0.00 | 81 | 1007.8 |
| 20260506062222 | 59 | 15 | 5.2 | 9.6 | 0.00 | 0.00 | 0.00 | 79 | 1007.5 |
| 20260506061223 | 59 | 13 | 6.1 | 12.2 | 0.00 | 0.00 | 0.00 | 78 | 1007.6 |
| 20260506060219 | 59 | 346 | 6.1 | 12.2 | 0.00 | 0.00 | 0.00 | 79 | 1007.5 |
| 20260506051241 | 60 | 5 | 6.1 | 12.2 | 0.00 | 0.00 | 0.00 | 78 | 1007.6 |
| 20260506043008 | 61 | 349 | 6.1 | 11.3 | 0.00 | 0.00 | 0.00 | 76 | 1007.5 |
| 20260506041954 | 62 | 302 | 4.3 | 11.3 | 0.00 | 0.00 | 0.00 | 76 | 1007.3 |
| 20260506041010 | 62 | 323 | 6.1 | 11.3 | 0.00 | 0.00 | 0.00 | 75 | 1007.4 |
| 20260506040002 | 63 | 333 | 6.1 | 11.3 | 0.00 | 0.00 | 0.00 | 75 | 1007.5 |
| 20260506034958 | 63 | 350 | 7.0 | 13.0 | 0.00 | 0.00 | 0.00 | 74 | 1007.5 |
| 20260506032803 | 64 | 329 | 6.1 | 13.0 | 0.00 | 0.00 | 0.00 | 74 | 1006.9 |
| 20260506031813 | 64 | 344 | 5.2 | 10.4 | 0.00 | 0.00 | 0.00 | 74 | 1006.7 |
| 20260506030749 | 64 | 355 | 6.1 | 10.4 | 0.00 | 0.00 | 0.00 | 74 | 1006.5 |
| 20260506025804 | 65 | 330 | 6.1 | 13.0 | 0.00 | 0.00 | 0.00 | 75 | 1006.2 |
| 20260506024803 | 65 | 348 | 7.0 | 13.0 | 0.00 | 0.00 | 0.00 | 74 | 1005.8 |
| 20260506023756 | 65 | 0 | 6.1 | 10.4 | 0.00 | 0.00 | 0.00 | 74 | 1005.8 |
| 20260506022809 | 66 | 347 | 4.3 | 8.7 | 0.00 | 0.00 | 0.00 | 73 | 1005.6 |
| 20260506021753 | 66 | 340 | 3.5 | 7.8 | 0.00 | 0.00 | 0.00 | 72 | 1005.5 |
| 20260506020735 | 66 | 339 | 4.3 | 11.3 | 0.00 | 0.00 | 0.00 | 71 | 1005.2 |
| 20260506015709 | 67 | 355 | 4.3 | 11.3 | 0.00 | 0.00 | 0.00 | 71 | 1005.3 |
| 20260506014734 | 67 | 355 | 5.2 | 9.6 | 0.00 | 0.00 | 0.00 | 71 | 1005.2 |
| 20260506013745 | 67 | 349 | 5.2 | 8.7 | 0.00 | 0.00 | 0.00 | 71 | 1004.8 |
| 20260506011635 | 68 | 5 | 7.8 | 13.9 | 0.00 | 0.00 | 0.00 | 70 | 1004.1 |
| 20260506010600 | 69 | 337 | 7.0 | 13.9 | 0.00 | 0.00 | 0.00 | 69 | 1003.7 |
| 20260506005621 | 70 | 329 | 8.7 | 14.8 | 0.00 | 0.00 | 0.00 | 69 | 1003.6 |
| 20260506004623 | 71 | 355 | 7.0 | 14.8 | 0.00 | 0.00 | 0.00 | 68 | 1003.2 |
| 20260506003641 | 71 | 307 | 6.1 | 10.4 | 0.00 | 0.00 | 0.00 | 67 | 1003.2 |
| 20260506002628 | 72 | 323 | 6.1 | 15.6 | 0.00 | 0.00 | 0.00 | 66 | 1003.0 |
| 20260506000456 | 73 | 349 | 8.7 | 13.9 | 0.00 | 0.00 | 0.00 | 65 | 1002.9 |
| 20260505235508 | 74 | 351 | 7.0 | 13.0 | 0.00 | 0.00 | 0.00 | 65 | 1002.9 |
| 20260505232325 | 76 | 335 | 7.8 | 14.8 | 0.00 | 0.00 | 0.00 | 61 | 1002.7 |
| 20260505231329 | 77 | 342 | 8.7 | 14.8 | 0.00 | 0.00 | 0.00 | 60 | 1002.6 |
| 20260505225235 | 80 | 339 | 7.0 | 13.9 | 0.00 | 0.00 | 0.00 | 57 | 1002.2 |
| 20260505224226 | 80 | 325 | 7.0 | 13.9 | 0.00 | 0.00 | 0.00 | 57 | 1002.4 |
| 20260505223242 | 81 | 316 | 7.8 | 13.0 | 0.00 | 0.00 | 0.00 | 57 | 1002.1 |
| 20260505222230 | 83 | 318 | 7.8 | 13.0 | 0.00 | 0.00 | 0.00 | 56 | 1002.1 |
| 20260505221239 | 84 | 16 | 7.8 | 12.2 | 0.00 | 0.00 | 0.00 | 54 | 1002.0 |
| 20260505220216 | 86 | 5 | 6.1 | 12.2 | 0.00 | 0.00 | 0.00 | 53 | 1001.8 |
| 20260505215144 | 86 | 9 | 7.0 | 11.3 | 0.00 | 0.00 | 0.00 | 50 | 1001.8 |
| 20260505213016 | 86 | 311 | 6.1 | 10.4 | 0.00 | 0.00 | 0.00 | 47 | 1001.9 |
| 20260505210844 | 88 | 323 | 5.2 | 12.2 | 0.00 | 0.00 | 0.00 | 43 | 1001.9 |
| 20260505205858 | 89 | 346 | 6.1 | 10.4 | 0.00 | 0.00 | 0.00 | 44 | 1001.9 |
| 20260505204842 | 91 | 323 | 4.3 | 10.4 | 0.00 | 0.00 | 0.00 | 42 | 1001.9 |
| 20260505203857 | 90 | 277 | 5.2 | 8.7 | 0.00 | 0.00 | 0.00 | 44 | 1001.9 |
| 20260505202839 | 90 | 252 | 3.5 | 8.7 | 0.00 | 0.00 | 0.00 | 46 | 1001.9 |
| 20260505201903 | 89 | 267 | 3.5 | 8.7 | 0.00 | 0.00 | 0.00 | 47 | 1001.9 |
| 20260505200835 | 89 | 196 | 3.5 | 9.6 | 0.00 | 0.00 | 0.00 | 50 | 1001.9 |
| 20260505195820 | 89 | 293 | 4.3 | 10.4 | 0.00 | 0.00 | 0.00 | 50 | 1002.2 |
| 20260505194825 | 89 | 231 | 5.2 | 10.4 | 0.00 | 0.00 | 0.00 | 52 | 1002.3 |
| 20260505192633 | 88 | 240 | 6.1 | 13.0 | 0.00 | 0.00 | 0.00 | 53 | 1002.2 |
| 20260505191627 | 88 | 227 | 6.1 | 13.0 | 0.00 | 0.00 | 0.00 | 52 | 1002.3 |
| 20260505190557 | 87 | 194 | 5.2 | 12.2 | 0.00 | 0.00 | 0.00 | 53 | 1002.0 |
| 20260505185615 | 87 | 222 | 5.2 | 16.5 | 0.00 | 0.00 | 0.00 | 56 | 1002.0 |
| 20260505183428 | 85 | 213 | 7.0 | 13.9 | 0.00 | 0.00 | 0.00 | 59 | 1002.0 |
| 20260505182416 | 85 | 180 | 7.8 | 13.9 | 0.00 | 0.00 | 0.00 | 61 | 1002.2 |
| 20260505181437 | 84 | 200 | 7.0 | 13.0 | 0.00 | 0.00 | 0.00 | 61 | 1002.2 |
| 20260505180403 | 84 | 190 | 6.1 | 14.8 | 0.00 | 0.00 | 0.00 | 61 | 1002.3 |
| 20260505175332 | 84 | 195 | 7.0 | 17.4 | 0.00 | 0.00 | 0.00 | 61 | 1002.2 |
| 20260505174323 | 83 | 192 | 7.8 | 17.4 | 0.00 | 0.00 | 0.00 | 66 | 1002.3 |
| 20260505173334 | 83 | 209 | 7.8 | 14.8 | 0.00 | 0.00 | 0.00 | 65 | 1002.2 |
| 20260505171209 | 83 | 195 | 7.0 | 13.9 | 0.00 | 0.00 | 0.00 | 64 | 1002.5 |
| 20260505170140 | 83 | 194 | 7.0 | 13.0 | 0.00 | 0.00 | 0.00 | 65 | 1002.3 |
| 20260505165123 | 82 | 184 | 7.8 | 13.9 | 0.00 | 0.00 | 0.00 | 65 | 1002.5 |
| 20260505164126 | 82 | 207 | 7.8 | 15.6 | 0.00 | 0.00 | 0.00 | 65 | 1002.4 |
| 20260505163108 | 82 | 218 | 7.0 | 15.6 | 0.00 | 0.00 | 0.00 | 68 | 1002.3 |
| 20260505162109 | 80 | 183 | 7.0 | 13.0 | 0.00 | 0.00 | 0.00 | 71 | 1002.2 |
| 20260505161126 | 79 | 210 | 7.8 | 13.0 | 0.00 | 0.00 | 0.00 | 72 | 1002.2 |
| 20260505160151 | 78 | 202 | 7.8 | 18.2 | 0.00 | 0.00 | 0.00 | 73 | 1002.0 |
| 20260505153054 | 76 | 226 | 7.8 | 14.8 | 0.00 | 0.00 | 0.00 | 77 | 1001.7 |
| 20260505152119 | 75 | 214 | 9.6 | 16.5 | 0.00 | 0.00 | 0.00 | 78 | 1001.9 |
| 20260505151044 | 74 | 213 | 8.7 | 18.2 | 0.00 | 0.00 | 0.00 | 78 | 1001.9 |